| time (UTC) | temp F | wind direction | speed knots | gust knots | rain 1hr in | rain 24hr in | rain mn in | humidity % | barometer mb |
| 20260508225919 | 55 | 45 | 0.0 | 0.0 | 0.00 | 0.00 | 0.00 | 86 | 947.0 |
| 20260508225423 | 56 | 45 | 0.0 | 0.0 | 0.00 | 0.00 | 0.00 | 86 | 947.0 |
| 20260508224438 | 56 | 45 | 0.0 | 0.0 | 0.00 | 0.00 | 0.00 | 86 | 947.0 |
| 20260508223921 | 56 | 45 | 0.0 | 0.0 | 0.00 | 0.00 | 0.00 | 86 | 947.0 |
| 20260508223419 | 56 | 45 | 0.0 | 0.0 | 0.00 | 0.00 | 0.00 | 86 | 947.0 |
| 20260508222420 | 56 | 45 | 0.0 | 0.0 | 0.00 | 0.00 | 0.00 | 86 | 947.0 |
| 20260508220920 | 56 | 45 | 0.0 | 0.0 | 0.00 | 0.00 | 0.00 | 86 | 947.0 |
| 20260508215924 | 56 | 45 | 0.0 | 0.0 | 0.00 | 0.00 | 0.00 | 86 | 947.0 |
| 20260508215420 | 56 | 45 | 0.0 | 0.0 | 0.00 | 0.00 | 0.00 | 86 | 947.0 |
| 20260508214926 | 56 | 45 | 0.0 | 0.0 | 0.00 | 0.00 | 0.00 | 86 | 947.0 |
| 20260508213929 | 56 | 45 | 0.0 | 0.0 | 0.00 | 0.00 | 0.00 | 85 | 947.0 |
| 20260508213422 | 56 | 45 | 0.0 | 0.0 | 0.00 | 0.00 | 0.00 | 85 | 947.0 |
| 20260508212423 | 56 | 45 | 0.0 | 1.7 | 0.00 | 0.00 | 0.00 | 85 | 947.0 |
| 20260508211934 | 56 | 45 | 0.0 | 1.7 | 0.00 | 0.00 | 0.00 | 85 | 947.0 |
| 20260508211422 | 56 | 45 | 1.7 | 1.7 | 0.00 | 0.00 | 0.00 | 85 | 947.0 |
| 20260508210921 | 56 | 45 | 0.0 | 0.0 | 0.00 | 0.00 | 0.00 | 85 | 947.0 |
| 20260508210442 | 56 | 45 | 0.0 | 0.0 | 0.00 | 0.00 | 0.00 | 85 | 947.0 |
| 20260508205421 | 56 | 45 | 0.0 | 1.7 | 0.00 | 0.00 | 0.00 | 85 | 948.0 |
| 20260508204921 | 56 | 45 | 0.0 | 1.7 | 0.00 | 0.00 | 0.00 | 85 | 947.0 |
| 20260508203923 | 56 | 45 | 0.0 | 0.0 | 0.00 | 0.00 | 0.00 | 85 | 947.0 |
| 20260508203423 | 56 | 45 | 0.0 | 0.0 | 0.00 | 0.00 | 0.00 | 85 | 948.0 |
| 20260508202921 | 56 | 45 | 0.0 | 0.0 | 0.00 | 0.00 | 0.00 | 85 | 947.0 |
| 20260508202424 | 56 | 45 | 0.0 | 0.0 | 0.00 | 0.00 | 0.00 | 85 | 947.0 |
| 20260508201926 | 56 | 45 | 0.0 | 0.0 | 0.00 | 0.00 | 0.00 | 85 | 947.0 |
| 20260508201427 | 56 | 45 | 0.0 | 0.0 | 0.00 | 0.00 | 0.00 | 85 | 947.0 |
| 20260508200923 | 56 | 45 | 0.0 | 0.0 | 0.00 | 0.00 | 0.00 | 85 | 947.0 |
| 20260508200422 | 57 | 45 | 0.0 | 0.0 | 0.00 | 0.00 | 0.00 | 84 | 947.0 |
| 20260508195936 | 57 | 45 | 0.0 | 0.0 | 0.00 | 0.00 | 0.00 | 85 | 947.0 |
| 20260508195502 | 57 | 45 | 0.0 | 0.0 | 0.00 | 0.00 | 0.00 | 84 | 947.0 |
| 20260508193422 | 57 | 45 | 0.0 | 1.7 | 0.00 | 0.00 | 0.00 | 84 | 947.0 |
| 20260508191943 | 58 | 45 | 0.0 | 0.0 | 0.00 | 0.00 | 0.00 | 84 | 947.0 |
| 20260508191424 | 58 | 45 | 0.0 | 0.0 | 0.00 | 0.00 | 0.00 | 84 | 947.0 |
| 20260508190952 | 58 | 45 | 0.0 | 0.0 | 0.00 | 0.00 | 0.00 | 84 | 947.0 |
| 20260508190423 | 57 | 45 | 0.0 | 0.0 | 0.00 | 0.00 | 0.00 | 84 | 947.0 |
| 20260508185923 | 58 | 45 | 0.0 | 0.0 | 0.00 | 0.00 | 0.00 | 84 | 947.0 |
| 20260508185429 | 57 | 45 | 0.0 | 0.0 | 0.00 | 0.00 | 0.00 | 84 | 947.0 |
| 20260508184927 | 57 | 45 | 0.0 | 0.0 | 0.00 | 0.00 | 0.00 | 84 | 947.0 |
| 20260508184423 | 57 | 45 | 0.0 | 0.0 | 0.00 | 0.00 | 0.00 | 83 | 947.0 |
| 20260508182924 | 58 | 45 | 0.0 | 1.7 | 0.00 | 0.00 | 0.00 | 83 | 947.0 |
| 20260508182433 | 58 | 45 | 0.0 | 1.7 | 0.00 | 0.00 | 0.00 | 83 | 946.0 |
| 20260508181438 | 58 | 45 | 0.0 | 0.0 | 0.00 | 0.00 | 0.00 | 83 | 946.0 |
| 20260508180924 | 59 | 45 | 0.0 | 2.6 | 0.00 | 0.00 | 0.00 | 83 | 946.0 |
| 20260508180425 | 59 | 45 | 0.0 | 3.5 | 0.00 | 0.00 | 0.00 | 83 | 946.0 |
| 20260508175443 | 60 | 45 | 0.0 | 3.5 | 0.00 | 0.00 | 0.00 | 82 | 946.0 |
| 20260508174924 | 60 | 45 | 1.7 | 1.7 | 0.00 | 0.00 | 0.00 | 82 | 946.0 |
| 20260508174425 | 60 | 45 | 0.0 | 0.0 | 0.00 | 0.00 | 0.00 | 82 | 946.0 |
| 20260508173949 | 60 | 45 | 0.0 | 0.0 | 0.00 | 0.00 | 0.00 | 82 | 946.0 |
| 20260508172424 | 61 | 45 | 0.0 | 0.9 | 0.00 | 0.00 | 0.00 | 81 | 946.0 |
| 20260508171928 | 61 | 45 | 0.0 | 0.9 | 0.00 | 0.00 | 0.00 | 81 | 946.0 |
| 20260508170427 | 62 | 45 | 0.0 | 0.0 | 0.00 | 0.00 | 0.00 | 81 | 946.0 |
| 20260508165433 | 62 | 45 | 0.0 | 0.0 | 0.00 | 0.00 | 0.00 | 80 | 946.0 |
| 20260508164934 | 62 | 45 | 0.0 | 0.0 | 0.00 | 0.00 | 0.00 | 80 | 946.0 |
| 20260508163926 | 63 | 45 | 0.0 | 0.0 | 0.00 | 0.00 | 0.00 | 80 | 946.0 |
| 20260508163438 | 63 | 45 | 0.0 | 0.0 | 0.00 | 0.00 | 0.00 | 80 | 946.0 |
| 20260508161926 | 63 | 45 | 0.0 | 0.0 | 0.00 | 0.00 | 0.00 | 80 | 945.0 |
| 20260508160926 | 63 | 45 | 0.0 | 0.0 | 0.00 | 0.00 | 0.00 | 80 | 945.0 |
| 20260508160427 | 63 | 45 | 0.0 | 0.0 | 0.00 | 0.00 | 0.00 | 80 | 945.0 |
| 20260508155926 | 63 | 45 | 0.0 | 0.0 | 0.00 | 0.00 | 0.00 | 79 | 945.0 |
| 20260508155425 | 63 | 45 | 0.0 | 0.0 | 0.00 | 0.00 | 0.00 | 79 | 945.0 |
| 20260508154927 | 63 | 45 | 0.0 | 0.0 | 0.00 | 0.00 | 0.00 | 79 | 945.0 |
| 20260508154426 | 63 | 45 | 0.0 | 0.0 | 0.00 | 0.00 | 0.00 | 79 | 945.0 |
| 20260508153930 | 63 | 45 | 0.0 | 0.0 | 0.00 | 0.00 | 0.00 | 79 | 945.0 |
| 20260508152928 | 63 | 45 | 0.0 | 0.0 | 0.00 | 0.00 | 0.00 | 79 | 945.0 |
| 20260508152427 | 63 | 45 | 0.0 | 0.0 | 0.00 | 0.00 | 0.00 | 78 | 945.0 |
| 20260508151926 | 63 | 45 | 0.0 | 0.0 | 0.00 | 0.00 | 0.00 | 77 | 945.0 |
| 20260508150934 | 63 | 45 | 0.0 | 0.0 | 0.00 | 0.00 | 0.00 | 76 | 945.0 |
| 20260508150426 | 63 | 45 | 0.0 | 3.5 | 0.00 | 0.00 | 0.00 | 75 | 945.0 |
| 20260508145427 | 64 | 45 | 3.5 | 3.5 | 0.00 | 0.00 | 0.00 | 72 | 945.0 |
| 20260508144940 | 65 | 45 | 3.5 | 3.5 | 0.00 | 0.00 | 0.00 | 71 | 946.0 |
| 20260508143428 | 66 | 45 | 0.0 | 2.6 | 0.00 | 0.00 | 0.00 | 70 | 945.0 |
| 20260508142943 | 66 | 45 | 0.0 | 2.6 | 0.00 | 0.00 | 0.00 | 69 | 945.0 |
| 20260508142428 | 67 | 45 | 0.0 | 3.5 | 0.00 | 0.00 | 0.00 | 68 | 945.0 |
| 20260508141429 | 68 | 45 | 3.5 | 3.5 | 0.00 | 0.00 | 0.00 | 67 | 945.0 |
| 20260508140428 | 69 | 45 | 3.5 | 4.3 | 0.00 | 0.00 | 0.00 | 65 | 945.0 |
| 20260508135928 | 68 | 45 | 0.0 | 4.3 | 0.00 | 0.00 | 0.00 | 65 | 945.0 |
| 20260508135428 | 69 | 45 | 2.6 | 3.5 | 0.00 | 0.00 | 0.00 | 66 | 945.0 |
| 20260508133929 | 69 | 45 | 2.6 | 3.5 | 0.00 | 0.00 | 0.00 | 65 | 945.0 |
| 20260508133430 | 70 | 45 | 0.0 | 4.3 | 0.00 | 0.00 | 0.00 | 64 | 945.0 |
| 20260508132929 | 71 | 45 | 2.6 | 6.1 | 0.00 | 0.00 | 0.00 | 63 | 945.0 |
| 20260508132438 | 71 | 45 | 4.3 | 6.1 | 0.00 | 0.00 | 0.00 | 63 | 945.0 |
| 20260508130945 | 73 | 45 | 0.0 | 3.5 | 0.00 | 0.00 | 0.00 | 60 | 945.0 |
| 20260508130445 | 74 | 45 | 0.0 | 3.5 | 0.00 | 0.00 | 0.00 | 59 | 945.0 |
| 20260508125929 | 74 | 45 | 3.5 | 3.5 | 0.00 | 0.00 | 0.00 | 60 | 945.0 |
| 20260508125430 | 74 | 45 | 0.0 | 5.2 | 0.00 | 0.00 | 0.00 | 61 | 945.0 |
| 20260508122932 | 70 | 45 | 0.0 | 1.7 | 0.00 | 0.00 | 0.00 | 68 | 945.0 |
| 20260508122431 | 70 | 45 | 0.0 | 1.7 | 0.00 | 0.00 | 0.00 | 68 | 945.0 |
| 20260508121431 | 69 | 45 | 0.9 | 3.5 | 0.00 | 0.00 | 0.00 | 70 | 945.0 |
| 20260508120930 | 68 | 45 | 0.0 | 5.2 | 0.00 | 0.00 | 0.00 | 69 | 945.0 |
| 20260508120441 | 67 | 45 | 2.6 | 5.2 | 0.00 | 0.00 | 0.00 | 69 | 945.0 |
| 20260508114448 | 70 | 45 | 5.2 | 7.0 | 0.00 | 0.00 | 0.00 | 61 | 945.0 |
| 20260508113930 | 72 | 45 | 1.7 | 7.0 | 0.00 | 0.00 | 0.00 | 58 | 945.0 |
| 20260508113429 | 74 | 0 | 0.0 | 7.0 | 0.00 | 0.00 | 0.00 | 57 | 945.0 |
| 20260508112429 | 75 | 45 | 4.3 | 6.1 | 0.00 | 0.00 | 0.00 | 57 | 945.0 |
| 20260508111930 | 74 | 45 | 3.5 | 4.3 | 0.00 | 0.00 | 0.00 | 58 | 945.0 |
| 20260508111454 | 73 | 45 | 0.0 | 4.3 | 0.00 | 0.00 | 0.00 | 58 | 945.0 |
| 20260508110431 | 72 | 45 | 1.7 | 3.5 | 0.00 | 0.00 | 0.00 | 61 | 945.0 |
| 20260508105433 | 71 | 45 | 2.6 | 4.3 | 0.00 | 0.00 | 0.00 | 61 | 944.0 |
| 20260508104430 | 70 | 45 | 2.6 | 6.1 | 0.00 | 0.00 | 0.00 | 61 | 945.0 |
| 20260508103939 | 70 | 22 | 0.0 | 6.1 | 0.00 | 0.00 | 0.00 | 61 | 945.0 |
| 20260508103429 | 71 | 45 | 6.1 | 6.1 | 0.00 | 0.00 | 0.00 | 60 | 945.0 |
| 20260508101946 | 73 | 315 | 0.0 | 3.5 | 0.00 | 0.00 | 0.00 | 60 | 945.0 |
| 20260508100933 | 73 | 90 | 0.0 | 0.0 | 0.00 | 0.00 | 0.00 | 64 | 944.0 |
| 20260508100433 | 73 | 90 | 0.0 | 0.0 | 0.00 | 0.00 | 0.00 | 63 | 944.0 |
| 20260508095930 | 72 | 90 | 0.0 | 0.0 | 0.00 | 0.00 | 0.00 | 64 | 944.0 |
| 20260508093435 | 73 | 90 | 0.0 | 0.0 | 0.00 | 0.00 | 0.00 | 63 | 945.0 |
| 20260508092433 | 73 | 90 | 0.0 | 0.0 | 0.00 | 0.00 | 0.00 | 64 | 944.0 |
| 20260508091930 | 73 | 90 | 0.0 | 0.0 | 0.00 | 0.00 | 0.00 | 64 | 945.0 |
| 20260508091442 | 73 | 90 | 0.0 | 0.0 | 0.00 | 0.00 | 0.00 | 64 | 945.0 |
| 20260508090929 | 73 | 90 | 0.0 | 0.0 | 0.00 | 0.00 | 0.00 | 65 | 945.0 |
| 20260508090429 | 72 | 90 | 0.0 | 0.9 | 0.00 | 0.00 | 0.00 | 65 | 945.0 |
| 20260508084433 | 72 | 90 | 0.0 | 0.0 | 0.00 | 0.00 | 0.00 | 66 | 945.0 |
| 20260508083929 | 72 | 90 | 0.0 | 0.0 | 0.00 | 0.00 | 0.00 | 67 | 945.0 |
| 20260508083429 | 72 | 90 | 0.0 | 1.7 | 0.00 | 0.00 | 0.00 | 67 | 945.0 |
| 20260508082429 | 72 | 90 | 1.7 | 1.7 | 0.00 | 0.00 | 0.00 | 68 | 945.0 |
| 20260508080939 | 71 | 90 | 0.0 | 0.0 | 0.00 | 0.00 | 0.00 | 69 | 944.0 |
| 20260508080429 | 71 | 90 | 0.0 | 0.0 | 0.00 | 0.00 | 0.00 | 69 | 944.0 |
| 20260508075929 | 71 | 90 | 0.0 | 0.0 | 0.00 | 0.00 | 0.00 | 70 | 944.0 |
| 20260508073933 | 70 | 90 | 0.0 | 0.9 | 0.00 | 0.00 | 0.00 | 71 | 944.0 |
| 20260508072428 | 70 | 90 | 0.0 | 0.0 | 0.00 | 0.00 | 0.00 | 73 | 944.0 |
| 20260508071931 | 70 | 90 | 0.0 | 0.0 | 0.00 | 0.00 | 0.00 | 73 | 944.0 |
| 20260508071430 | 70 | 90 | 0.0 | 0.0 | 0.00 | 0.00 | 0.00 | 74 | 944.0 |
| 20260508070934 | 70 | 90 | 0.0 | 0.0 | 0.00 | 0.00 | 0.00 | 75 | 944.0 |
| 20260508065930 | 68 | 90 | 0.0 | 0.0 | 0.00 | 0.00 | 0.00 | 77 | 944.0 |
| 20260508064938 | 67 | 90 | 0.0 | 0.0 | 0.00 | 0.00 | 0.00 | 78 | 944.0 |
| 20260508063930 | 66 | 90 | 0.0 | 0.0 | 0.00 | 0.00 | 0.00 | 80 | 944.0 |
| 20260508062944 | 64 | 90 | 0.0 | 0.0 | 0.00 | 0.00 | 0.00 | 80 | 944.0 |
| 20260508062431 | 64 | 90 | 0.0 | 0.0 | 0.00 | 0.00 | 0.00 | 80 | 944.0 |
| 20260508061931 | 64 | 90 | 0.0 | 0.0 | 0.00 | 0.00 | 0.00 | 80 | 944.0 |
| 20260508060951 | 62 | 90 | 0.0 | 0.0 | 0.00 | 0.00 | 0.00 | 81 | 944.0 |
| 20260508055928 | 62 | 90 | 0.0 | 0.0 | 0.00 | 0.00 | 0.00 | 81 | 944.0 |
| 20260508055429 | 61 | 90 | 0.0 | 0.0 | 0.00 | 0.00 | 0.00 | 81 | 944.0 |
| 20260508054929 | 61 | 90 | 0.0 | 0.0 | 0.00 | 0.00 | 0.00 | 81 | 944.0 |
| 20260508054430 | 61 | 90 | 0.0 | 0.0 | 0.00 | 0.00 | 0.00 | 81 | 944.0 |
| 20260508053930 | 60 | 90 | 0.0 | 0.0 | 0.00 | 0.00 | 0.00 | 80 | 944.0 |
| 20260508053434 | 60 | 90 | 0.0 | 0.0 | 0.00 | 0.00 | 0.00 | 80 | 944.0 |
| 20260508052932 | 60 | 90 | 0.0 | 0.0 | 0.00 | 0.00 | 0.00 | 80 | 944.0 |
| 20260508052437 | 60 | 90 | 0.0 | 0.0 | 0.00 | 0.00 | 0.00 | 80 | 944.0 |
| 20260508051935 | 60 | 90 | 0.0 | 0.0 | 0.00 | 0.00 | 0.00 | 81 | 944.0 |
| 20260508050928 | 60 | 90 | 0.0 | 0.0 | 0.00 | 0.00 | 0.00 | 81 | 944.0 |
| 20260508050443 | 60 | 90 | 0.0 | 0.0 | 0.00 | 0.00 | 0.00 | 81 | 944.0 |
| 20260508045929 | 60 | 90 | 0.0 | 0.0 | 0.00 | 0.00 | 0.00 | 81 | 944.0 |
| 20260508045430 | 59 | 90 | 0.0 | 0.0 | 0.00 | 0.00 | 0.00 | 81 | 944.0 |
| 20260508044929 | 59 | 90 | 0.0 | 0.0 | 0.00 | 0.00 | 0.00 | 81 | 944.0 |
| 20260508043929 | 59 | 90 | 0.0 | 0.0 | 0.00 | 0.00 | 0.00 | 81 | 944.0 |
| 20260508041930 | 59 | 90 | 0.0 | 0.0 | 0.00 | 0.00 | 0.00 | 81 | 944.0 |
| 20260508040929 | 58 | 90 | 0.0 | 0.0 | 0.00 | 0.00 | 0.00 | 81 | 944.0 |
| 20260508035935 | 58 | 90 | 0.0 | 0.0 | 0.00 | 0.00 | 0.00 | 81 | 944.0 |
| 20260508034447 | 57 | 90 | 0.0 | 0.0 | 0.00 | 0.00 | 0.00 | 81 | 944.0 |
| 20260508033942 | 57 | 90 | 0.0 | 0.0 | 0.00 | 0.00 | 0.00 | 80 | 944.0 |
| 20260508032930 | 57 | 90 | 0.0 | 0.0 | 0.00 | 0.00 | 0.00 | 80 | 944.0 |
| 20260508032449 | 57 | 90 | 0.0 | 0.0 | 0.00 | 0.00 | 0.00 | 80 | 944.0 |
| 20260508031429 | 57 | 90 | 0.0 | 0.0 | 0.00 | 0.00 | 0.00 | 79 | 944.0 |
| 20260508030934 | 57 | 90 | 0.0 | 0.0 | 0.00 | 0.00 | 0.00 | 78 | 944.0 |
| 20260508030429 | 57 | 90 | 0.0 | 0.0 | 0.00 | 0.00 | 0.00 | 78 | 944.0 |
| 20260508025430 | 57 | 90 | 0.0 | 0.0 | 0.00 | 0.00 | 0.00 | 78 | 944.0 |
| 20260508024928 | 57 | 90 | 0.0 | 0.0 | 0.00 | 0.00 | 0.00 | 77 | 944.0 |
| 20260508024433 | 58 | 90 | 0.0 | 0.0 | 0.00 | 0.00 | 0.00 | 76 | 944.0 |
| 20260508023502 | 58 | 90 | 0.0 | 0.0 | 0.00 | 0.00 | 0.00 | 76 | 944.0 |
| 20260508022929 | 58 | 90 | 0.0 | 0.0 | 0.00 | 0.00 | 0.00 | 76 | 944.0 |
| 20260508022430 | 58 | 90 | 0.0 | 0.0 | 0.00 | 0.00 | 0.00 | 75 | 944.0 |
| 20260508021429 | 58 | 90 | 0.0 | 1.7 | 0.00 | 0.00 | 0.00 | 75 | 944.0 |
| 20260508020928 | 58 | 90 | 0.0 | 1.7 | 0.00 | 0.00 | 0.00 | 75 | 944.0 |
| 20260508020429 | 59 | 90 | 0.0 | 1.7 | 0.00 | 0.00 | 0.00 | 74 | 944.0 |
| 20260508014951 | 59 | 90 | 0.0 | 1.7 | 0.00 | 0.00 | 0.00 | 73 | 944.0 |
| 20260508014430 | 59 | 90 | 0.0 | 1.7 | 0.00 | 0.00 | 0.00 | 72 | 944.0 |
| 20260508013928 | 59 | 90 | 0.0 | 0.0 | 0.00 | 0.00 | 0.00 | 72 | 944.0 |
| 20260508012929 | 59 | 90 | 0.0 | 0.0 | 0.00 | 0.00 | 0.00 | 71 | 944.0 |
| 20260508011435 | 59 | 90 | 0.0 | 2.6 | 0.00 | 0.00 | 0.00 | 70 | 944.0 |
| 20260508010928 | 59 | 90 | 0.0 | 2.6 | 0.00 | 0.00 | 0.00 | 70 | 944.0 |
| 20260508010439 | 59 | 90 | 0.0 | 0.0 | 0.00 | 0.00 | 0.00 | 69 | 944.0 |
| 20260508004428 | 59 | 90 | 0.0 | 0.0 | 0.00 | 0.00 | 0.00 | 68 | 944.0 |
| 20260508003448 | 59 | 90 | 0.0 | 0.0 | 0.00 | 0.00 | 0.00 | 68 | 944.0 |
| 20260508002928 | 59 | 90 | 0.0 | 0.0 | 0.00 | 0.00 | 0.00 | 68 | 944.0 |
| 20260508002429 | 59 | 90 | 0.0 | 0.0 | 0.00 | 0.00 | 0.00 | 68 | 943.0 |
| 20260508001929 | 59 | 90 | 0.0 | 0.0 | 0.00 | 0.00 | 0.00 | 68 | 944.0 |
| 20260507234940 | 59 | 90 | 0.0 | 0.0 | 0.00 | 0.00 | 0.00 | 67 | 943.0 |
| 20260507234429 | 58 | 90 | 0.0 | 0.0 | 0.00 | 0.00 | 0.00 | 67 | 943.0 |
| 20260507233933 | 58 | 90 | 0.0 | 0.0 | 0.00 | 0.00 | 0.00 | 67 | 943.0 |
| 20260507233445 | 58 | 90 | 0.0 | 0.0 | 0.00 | 0.00 | 0.00 | 67 | 943.0 |
| 20260507232428 | 58 | 90 | 0.0 | 0.0 | 0.00 | 0.00 | 0.00 | 67 | 944.0 |
| 20260507231928 | 58 | 90 | 0.0 | 0.0 | 0.00 | 0.00 | 0.00 | 66 | 943.0 |
| 20260507230432 | 58 | 90 | 0.0 | 0.0 | 0.00 | 0.00 | 0.00 | 65 | 944.0 |